| time (UTC) | temp C | wind direction | speed KPH | gust KPH | rain 1hr cm | rain 24hr cm | rain mn cm | humidity % | barometer mb |
| 20260504002005 | 10 | 262 | 0.0 | 4.8 | 0.00 | 0.08 | 0.08 | 72 | 1030.2 |
| 20260504001503 | 10 | 297 | 3.2 | 6.4 | 0.00 | 0.08 | 0.08 | 72 | 1030.1 |
| 20260504000959 | 10 | 278 | 1.6 | 4.8 | 0.00 | 0.08 | 0.08 | 72 | 1030.2 |
| 20260504000456 | 10 | 248 | 3.2 | 6.4 | 0.00 | 0.08 | 0.08 | 71 | 1030.3 |
| 20260503235953 | 10 | 302 | 0.0 | 4.8 | 0.00 | 0.08 | 0.08 | 71 | 1030.4 |
| 20260503235451 | 10 | 218 | 1.6 | 4.8 | 0.00 | 0.08 | 0.08 | 71 | 1030.1 |
| 20260503234948 | 10 | 331 | 3.2 | 6.4 | 0.00 | 0.08 | 0.08 | 71 | 1030.5 |
| 20260503234446 | 10 | 329 | 3.2 | 14.5 | 0.00 | 0.08 | 0.08 | 71 | 1030.4 |
| 20260503233944 | 10 | 74 | 0.0 | 6.4 | 0.00 | 0.08 | 0.08 | 71 | 1030.4 |
| 20260503233440 | 10 | 267 | 4.8 | 9.7 | 0.00 | 0.08 | 0.08 | 71 | 1030.3 |
| 20260503232936 | 10 | 258 | 8.0 | 8.0 | 0.00 | 0.08 | 0.08 | 71 | 1030.3 |
| 20260503232433 | 10 | 165 | 4.8 | 14.5 | 0.00 | 0.08 | 0.08 | 71 | 1030.4 |
| 20260503231931 | 10 | 42 | 3.2 | 6.4 | 0.00 | 0.08 | 0.08 | 71 | 1030.7 |
| 20260503231429 | 10 | 31 | 0.0 | 17.7 | 0.00 | 0.08 | 0.08 | 72 | 1030.6 |
| 20260503230925 | 10 | 10 | 0.0 | 16.1 | 0.00 | 0.08 | 0.08 | 73 | 1030.7 |
| 20260503230421 | 10 | 278 | 3.2 | 8.0 | 0.00 | 0.08 | 0.08 | 73 | 1030.5 |
| 20260503225919 | 10 | 318 | 3.2 | 17.7 | 0.00 | 0.08 | 0.08 | 73 | 1030.6 |
| 20260503225415 | 10 | 293 | 11.3 | 17.7 | 0.00 | 0.08 | 0.08 | 73 | 1030.7 |
| 20260503224911 | 10 | 332 | 11.3 | 29.0 | 0.05 | 0.08 | 0.08 | 74 | 1030.8 |
| 20260503224408 | 10 | 335 | 3.2 | 9.7 | 0.05 | 0.08 | 0.08 | 74 | 1030.9 |
| 20260503223906 | 10 | 305 | 6.4 | 22.5 | 0.00 | 0.05 | 0.05 | 72 | 1030.8 |
| 20260503223404 | 10 | 296 | 4.8 | 9.7 | 0.00 | 0.05 | 0.05 | 73 | 1031.0 |
| 20260503222859 | 10 | 269 | 9.7 | 17.7 | 0.00 | 0.05 | 0.05 | 73 | 1030.8 |
| 20260503222358 | 10 | 276 | 14.5 | 20.9 | 0.00 | 0.05 | 0.05 | 73 | 1030.9 |
| 20260503221856 | 10 | 305 | 3.2 | 12.9 | 0.00 | 0.05 | 0.05 | 74 | 1030.9 |
| 20260503221354 | 10 | 321 | 3.2 | 27.4 | 0.00 | 0.05 | 0.05 | 75 | 1031.0 |
| 20260503220850 | 10 | 315 | 6.4 | 14.5 | 0.00 | 0.05 | 0.05 | 76 | 1031.0 |
| 20260503220347 | 10 | 294 | 3.2 | 11.3 | 0.00 | 0.05 | 0.05 | 76 | 1031.1 |
| 20260503215844 | 10 | 283 | 6.4 | 14.5 | 0.00 | 0.05 | 0.05 | 75 | 1031.2 |
| 20260503215341 | 10 | 307 | 3.2 | 9.7 | 0.00 | 0.05 | 0.05 | 75 | 1031.1 |
| 20260503214838 | 10 | 309 | 9.7 | 20.9 | 0.00 | 0.05 | 0.05 | 74 | 1031.2 |
| 20260503214336 | 10 | 325 | 4.8 | 12.9 | 0.00 | 0.05 | 0.05 | 75 | 1031.0 |
| 20260503213833 | 10 | 271 | 9.7 | 16.1 | 0.05 | 0.05 | 0.05 | 75 | 1031.1 |
| 20260503213330 | 10 | 332 | 3.2 | 16.1 | 0.05 | 0.05 | 0.05 | 75 | 1031.1 |
| 20260503212827 | 10 | 3 | 1.6 | 19.3 | 0.00 | 0.05 | 0.05 | 74 | 1031.1 |
| 20260503212325 | 10 | 277 | 6.4 | 30.6 | 0.05 | 0.05 | 0.05 | 72 | 1031.3 |
| 20260503211822 | 10 | 331 | 9.7 | 17.7 | 0.05 | 0.05 | 0.05 | 71 | 1031.3 |
| 20260503211319 | 10 | 329 | 4.8 | 27.4 | 0.00 | 0.05 | 0.05 | 71 | 1031.2 |
| 20260503210819 | 10 | 292 | 11.3 | 25.7 | 0.05 | 0.05 | 0.05 | 70 | 1031.2 |
| 20260503210317 | 11 | 359 | 4.8 | 30.6 | 0.13 | 0.05 | 0.05 | 70 | 1031.2 |
| 20260503205811 | 11 | 274 | 8.0 | 17.7 | 0.05 | 0.03 | 0.03 | 67 | 1031.1 |
| 20260503205308 | 12 | 335 | 6.4 | 24.1 | 0.05 | 0.03 | 0.03 | 63 | 1031.0 |
| 20260503204805 | 12 | 281 | 12.9 | 25.7 | 0.05 | 0.03 | 0.03 | 60 | 1031.0 |
| 20260503204303 | 12 | 305 | 11.3 | 24.1 | 0.00 | 0.00 | 0.00 | 56 | 1030.7 |
| 20260503203800 | 13 | 350 | 4.8 | 11.3 | 0.00 | 0.00 | 0.00 | 56 | 1030.6 |
| 20260503203257 | 13 | 333 | 8.0 | 19.3 | 0.00 | 0.00 | 0.00 | 52 | 1030.6 |
| 20260503202754 | 13 | 281 | 16.1 | 29.0 | 0.00 | 0.00 | 0.00 | 49 | 1030.5 |
| 20260503202252 | 13 | 325 | 9.7 | 12.9 | 0.00 | 0.00 | 0.00 | 47 | 1030.4 |
| 20260503201749 | 13 | 319 | 6.4 | 25.7 | 0.00 | 0.00 | 0.00 | 47 | 1030.6 |
| 20260503201247 | 13 | 325 | 11.3 | 24.1 | 0.00 | 0.00 | 0.00 | 47 | 1030.4 |
| 20260503200743 | 13 | 310 | 4.8 | 4.8 | 0.00 | 0.00 | 0.00 | 47 | 1030.3 |
| 20260503200239 | 13 | 282 | 6.4 | 12.9 | 0.05 | 0.00 | 0.00 | 47 | 1030.3 |
| 20260503195736 | 13 | 344 | 3.2 | 14.5 | 0.05 | 0.00 | 0.00 | 47 | 1030.6 |
| 20260503195233 | 13 | 349 | 4.8 | 12.9 | 0.00 | 0.00 | 0.00 | 48 | 1030.7 |
| 20260503194731 | 13 | 307 | 11.3 | 11.3 | 0.00 | 0.00 | 0.00 | 46 | 1030.8 |
| 20260503194226 | 13 | 347 | 4.8 | 9.7 | 0.00 | 0.00 | 0.00 | 45 | 1030.7 |
| 20260503193723 | 13 | 342 | 4.8 | 9.7 | 0.00 | 0.00 | 0.00 | 44 | 1030.5 |
| 20260503193219 | 13 | 355 | 3.2 | 8.0 | 0.00 | 0.00 | 0.00 | 44 | 1030.6 |
| 20260503192715 | 13 | 35 | 0.0 | 8.0 | 0.00 | 0.00 | 0.00 | 45 | 1030.6 |
| 20260503192210 | 13 | 322 | 4.8 | 14.5 | 0.00 | 0.00 | 0.00 | 42 | 1030.6 |
| 20260503191707 | 14 | 107 | 6.4 | 11.3 | 0.00 | 0.00 | 0.00 | 43 | 1030.9 |
| 20260503191204 | 13 | 6 | 6.4 | 11.3 | 0.00 | 0.00 | 0.00 | 43 | 1031.2 |
| 20260503190701 | 12 | 353 | 3.2 | 8.0 | 0.00 | 0.00 | 0.00 | 44 | 1031.4 |
| 20260503190158 | 12 | 310 | 4.8 | 8.0 | 0.00 | 0.00 | 0.00 | 42 | 1031.4 |
| 20260503185654 | 13 | 24 | 4.8 | 8.0 | 0.00 | 0.00 | 0.00 | 41 | 1031.4 |
| 20260503185149 | 13 | 349 | 1.6 | 11.3 | 0.00 | 0.00 | 0.00 | 41 | 1031.7 |
| 20260503184645 | 13 | 266 | 4.8 | 16.1 | 0.00 | 0.00 | 0.00 | 39 | 1031.7 |
| 20260503184142 | 13 | 210 | 11.3 | 14.5 | 0.00 | 0.00 | 0.00 | 40 | 1031.6 |
| 20260503183638 | 13 | 109 | 6.4 | 16.1 | 0.00 | 0.00 | 0.00 | 38 | 1031.6 |
| 20260503183136 | 13 | 214 | 3.2 | 17.7 | 0.00 | 0.00 | 0.00 | 36 | 1031.9 |
| 20260503182634 | 14 | 277 | 6.4 | 11.3 | 0.00 | 0.00 | 0.00 | 37 | 1031.9 |
| 20260503182132 | 14 | 237 | 4.8 | 19.3 | 0.00 | 0.00 | 0.00 | 34 | 1031.9 |
| 20260503181628 | 14 | 334 | 6.4 | 9.7 | 0.00 | 0.00 | 0.00 | 37 | 1031.8 |
| 20260503181125 | 13 | 157 | 6.4 | 12.9 | 0.00 | 0.00 | 0.00 | 37 | 1032.0 |
| 20260503180622 | 13 | 284 | 9.7 | 14.5 | 0.00 | 0.00 | 0.00 | 38 | 1032.1 |
| 20260503180120 | 14 | 186 | 3.2 | 12.9 | 0.00 | 0.00 | 0.00 | 36 | 1032.2 |
| 20260503175617 | 14 | 247 | 8.0 | 9.7 | 0.00 | 0.00 | 0.00 | 36 | 1032.2 |
| 20260503175114 | 14 | 256 | 1.6 | 12.9 | 0.00 | 0.00 | 0.00 | 36 | 1032.4 |
| 20260503174610 | 15 | 274 | 3.2 | 12.9 | 0.00 | 0.00 | 0.00 | 37 | 1032.4 |
| 20260503174107 | 14 | 266 | 1.6 | 12.9 | 0.00 | 0.00 | 0.00 | 38 | 1032.7 |
| 20260503173602 | 13 | 290 | 4.8 | 11.3 | 0.00 | 0.00 | 0.00 | 39 | 1032.8 |
| 20260503173059 | 13 | 229 | 4.8 | 11.3 | 0.00 | 0.00 | 0.00 | 37 | 1032.8 |
| 20260503172556 | 13 | 138 | 3.2 | 11.3 | 0.00 | 0.00 | 0.00 | 36 | 1032.9 |
| 20260503172053 | 13 | 348 | 1.6 | 8.0 | 0.00 | 0.00 | 0.00 | 38 | 1033.0 |
| 20260503171549 | 13 | 279 | 9.7 | 14.5 | 0.00 | 0.00 | 0.00 | 40 | 1033.1 |
| 20260503171047 | 13 | 275 | 9.7 | 17.7 | 0.00 | 0.00 | 0.00 | 39 | 1033.2 |
| 20260503170543 | 13 | 201 | 8.0 | 14.5 | 0.00 | 0.00 | 0.00 | 40 | 1033.3 |
| 20260503150936 | 10 | 187 | 3.2 | 6.4 | 0.00 | 0.00 | 0.00 | 41 | 1034.7 |
| 20260503150432 | 10 | 280 | 6.4 | 9.7 | 0.00 | 0.00 | 0.00 | 42 | 1034.8 |
| 20260503131325 | 7 | 308 | 3.2 | 6.4 | 0.00 | 0.00 | 0.00 | 51 | 1035.6 |
| 20260503130823 | 7 | 260 | 3.2 | 8.0 | 0.00 | 0.00 | 0.00 | 52 | 1035.6 |
| 20260503130321 | 7 | 10 | 3.2 | 9.7 | 0.00 | 0.00 | 0.00 | 51 | 1035.6 |
| 20260503110714 | 0 | 352 | 1.6 | 3.2 | 0.00 | 0.00 | 0.00 | 87 | 1035.6 |
| 20260503110211 | -1 | 40 | 1.6 | 1.6 | 0.00 | 0.00 | 0.00 | 87 | 1035.7 |
| 20260503100137 | -1 | 303 | 0.0 | 0.0 | 0.00 | 0.00 | 0.00 | 83 | 1035.7 |
| 20260503081532 | -2 | 352 | 0.0 | 3.2 | 0.00 | 0.00 | 0.00 | 80 | 1036.3 |
| 20260503081030 | -2 | 31 | 0.0 | 3.2 | 0.00 | 0.00 | 0.00 | 81 | 1036.2 |
| 20260503080526 | -2 | 34 | 3.2 | 3.2 | 0.00 | 0.00 | 0.00 | 82 | 1036.2 |
| 20260503072459 | -2 | 32 | 0.0 | 0.0 | 0.00 | 0.00 | 0.00 | 77 | 1036.3 |
| 20260503071956 | -2 | 338 | 0.0 | 1.6 | 0.00 | 0.00 | 0.00 | 78 | 1036.5 |
| 20260503071453 | -2 | 335 | 0.0 | 0.0 | 0.00 | 0.00 | 0.00 | 78 | 1036.2 |
| 20260503070949 | -2 | 24 | 1.6 | 1.6 | 0.00 | 0.00 | 0.00 | 78 | 1036.3 |
| 20260503070447 | -2 | 34 | 0.0 | 0.0 | 0.00 | 0.00 | 0.00 | 78 | 1036.2 |
| 20260503054906 | -1 | 299 | 0.0 | 4.8 | 0.00 | 0.00 | 0.00 | 73 | 1036.9 |
| 20260503054402 | -1 | 11 | 0.0 | 3.2 | 0.00 | 0.00 | 0.00 | 73 | 1036.8 |
| 20260503053900 | -1 | 310 | 0.0 | 0.0 | 0.00 | 0.00 | 0.00 | 73 | 1036.7 |
| 20260503053358 | 0 | 288 | 3.2 | 3.2 | 0.00 | 0.00 | 0.00 | 73 | 1036.9 |
| 20260503052853 | 0 | 53 | 0.0 | 0.0 | 0.00 | 0.00 | 0.00 | 72 | 1036.9 |
| 20260503052351 | 0 | 31 | 0.0 | 3.2 | 0.00 | 0.00 | 0.00 | 70 | 1037.0 |
| 20260503051847 | 0 | 311 | 3.2 | 3.2 | 0.00 | 0.00 | 0.00 | 70 | 1037.1 |
| 20260503051343 | 0 | 30 | 0.0 | 1.6 | 0.00 | 0.00 | 0.00 | 68 | 1036.8 |
| 20260503050840 | 0 | 340 | 3.2 | 3.2 | 0.00 | 0.00 | 0.00 | 68 | 1037.0 |
| 20260503050337 | 0 | 15 | 3.2 | 3.2 | 0.00 | 0.00 | 0.00 | 68 | 1037.0 |
| 20260503045834 | 0 | 351 | 3.2 | 3.2 | 0.00 | 0.00 | 0.00 | 66 | 1036.8 |
| 20260503045332 | 0 | 358 | 3.2 | 3.2 | 0.00 | 0.00 | 0.00 | 65 | 1037.0 |
| 20260503044828 | 0 | 1 | 3.2 | 3.2 | 0.00 | 0.00 | 0.00 | 65 | 1037.0 |
| 20260503044325 | 0 | 355 | 3.2 | 3.2 | 0.00 | 0.00 | 0.00 | 64 | 1036.9 |
| 20260503043822 | 0 | 357 | 3.2 | 3.2 | 0.00 | 0.00 | 0.00 | 62 | 1037.3 |
| 20260503043319 | 1 | 359 | 3.2 | 3.2 | 0.00 | 0.00 | 0.00 | 60 | 1037.1 |
| 20260503042815 | 1 | 4 | 3.2 | 4.8 | 0.00 | 0.00 | 0.00 | 59 | 1037.1 |
| 20260503042312 | 1 | 4 | 4.8 | 6.4 | 0.00 | 0.00 | 0.00 | 58 | 1037.1 |
| 20260503041808 | 1 | 12 | 4.8 | 4.8 | 0.00 | 0.00 | 0.00 | 57 | 1037.2 |
| 20260503041306 | 2 | 5 | 4.8 | 4.8 | 0.00 | 0.00 | 0.00 | 55 | 1037.2 |
| 20260503040803 | 2 | 354 | 4.8 | 4.8 | 0.00 | 0.00 | 0.00 | 54 | 1037.2 |
| 20260503040301 | 2 | 348 | 4.8 | 6.4 | 0.00 | 0.00 | 0.00 | 54 | 1037.1 |
| 20260503035757 | 2 | 356 | 4.8 | 6.4 | 0.00 | 0.03 | 0.03 | 53 | 1037.3 |
| 20260503035255 | 2 | 348 | 3.2 | 6.4 | 0.00 | 0.03 | 0.03 | 54 | 1037.2 |
| 20260503034752 | 2 | 342 | 4.8 | 6.4 | 0.00 | 0.03 | 0.03 | 55 | 1037.2 |
| 20260503034249 | 2 | 345 | 4.8 | 4.8 | 0.00 | 0.03 | 0.03 | 55 | 1037.1 |
| 20260503033746 | 2 | 334 | 4.8 | 6.4 | 0.00 | 0.03 | 0.03 | 54 | 1037.1 |
| 20260503033244 | 3 | 341 | 4.8 | 6.4 | 0.00 | 0.03 | 0.03 | 53 | 1037.3 |
| 20260503032742 | 3 | 12 | 3.2 | 4.8 | 0.00 | 0.03 | 0.03 | 53 | 1037.1 |
| 20260503032240 | 3 | 357 | 3.2 | 4.8 | 0.00 | 0.03 | 0.03 | 53 | 1037.1 |
| 20260503031737 | 3 | 352 | 3.2 | 6.4 | 0.00 | 0.03 | 0.03 | 53 | 1037.1 |
| 20260503031235 | 3 | 350 | 4.8 | 8.0 | 0.00 | 0.03 | 0.03 | 53 | 1037.2 |
| 20260503030731 | 3 | 339 | 4.8 | 6.4 | 0.00 | 0.03 | 0.03 | 52 | 1037.1 |
| 20260503030227 | 3 | 1 | 3.2 | 8.0 | 0.00 | 0.03 | 0.03 | 52 | 1037.2 |
| 20260503025724 | 3 | 345 | 4.8 | 6.4 | 0.00 | 0.03 | 0.03 | 52 | 1037.1 |
| 20260503025222 | 3 | 333 | 6.4 | 6.4 | 0.00 | 0.03 | 0.03 | 53 | 1037.2 |
| 20260503024718 | 3 | 328 | 4.8 | 6.4 | 0.00 | 0.03 | 0.03 | 54 | 1037.4 |
| 20260503024216 | 3 | 353 | 3.2 | 6.4 | 0.00 | 0.03 | 0.03 | 55 | 1037.3 |
| 20260503023713 | 2 | 334 | 6.4 | 6.4 | 0.00 | 0.03 | 0.03 | 56 | 1037.3 |
| 20260503023209 | 2 | 329 | 6.4 | 6.4 | 0.00 | 0.03 | 0.03 | 57 | 1037.3 |
| 20260503022706 | 2 | 357 | 4.8 | 6.4 | 0.00 | 0.03 | 0.03 | 59 | 1037.4 |
| 20260503022205 | 2 | 350 | 4.8 | 6.4 | 0.00 | 0.03 | 0.03 | 61 | 1037.3 |
| 20260503021702 | 2 | 333 | 4.8 | 6.4 | 0.00 | 0.03 | 0.03 | 61 | 1037.3 |
| 20260503021159 | 2 | 355 | 4.8 | 6.4 | 0.00 | 0.03 | 0.03 | 64 | 1037.4 |
| 20260503020656 | 2 | 0 | 4.8 | 4.8 | 0.00 | 0.03 | 0.03 | 64 | 1037.3 |
| 20260503020153 | 2 | 352 | 3.2 | 4.8 | 0.00 | 0.03 | 0.03 | 64 | 1037.3 |
| 20260503015650 | 2 | 356 | 4.8 | 4.8 | 0.00 | 0.03 | 0.03 | 66 | 1037.3 |
| 20260503015147 | 2 | 345 | 3.2 | 4.8 | 0.00 | 0.03 | 0.03 | 63 | 1037.3 |
| 20260503014643 | 3 | 343 | 3.2 | 4.8 | 0.00 | 0.03 | 0.03 | 64 | 1037.4 |
| 20260503014141 | 3 | 347 | 3.2 | 3.2 | 0.00 | 0.03 | 0.03 | 64 | 1037.1 |
| 20260503013638 | 3 | 340 | 3.2 | 3.2 | 0.00 | 0.03 | 0.03 | 64 | 1037.4 |
| 20260503013136 | 3 | 345 | 1.6 | 3.2 | 0.00 | 0.03 | 0.03 | 61 | 1037.2 |
| 20260503012633 | 3 | 0 | 0.0 | 1.6 | 0.00 | 0.03 | 0.03 | 64 | 1037.3 |
| 20260503012129 | 3 | 36 | 0.0 | 0.0 | 0.00 | 0.03 | 0.03 | 62 | 1037.2 |
| 20260503011626 | 4 | 36 | 0.0 | 1.6 | 0.00 | 0.03 | 0.03 | 61 | 1037.3 |
| 20260503011123 | 4 | 240 | 0.0 | 1.6 | 0.00 | 0.03 | 0.03 | 60 | 1037.1 |
| 20260503010619 | 4 | 299 | 0.0 | 0.0 | 0.00 | 0.03 | 0.03 | 62 | 1037.0 |
| 20260503010117 | 5 | 251 | 0.0 | 1.6 | 0.00 | 0.03 | 0.03 | 62 | 1037.1 |
| 20260503005614 | 5 | 269 | 0.0 | 1.6 | 0.00 | 0.03 | 0.03 | 59 | 1037.0 |
| 20260503005111 | 5 | 232 | 0.0 | 1.6 | 0.00 | 0.03 | 0.03 | 56 | 1037.0 |
| 20260503004607 | 5 | 234 | 0.0 | 0.0 | 0.00 | 0.03 | 0.03 | 53 | 1037.0 |
| 20260503004106 | 5 | 230 | 0.0 | 0.0 | 0.00 | 0.03 | 0.03 | 52 | 1037.1 |
| 20260503003602 | 5 | 282 | 1.6 | 1.6 | 0.00 | 0.03 | 0.03 | 51 | 1037.1 |
| 20260503003059 | 5 | 340 | 0.0 | 3.2 | 0.00 | 0.03 | 0.03 | 50 | 1037.0 |
| 20260503002556 | 6 | 302 | 1.6 | 4.8 | 0.00 | 0.03 | 0.03 | 49 | 1037.1 |